Year,Month,Day,Hour,Minute,Value (Times are PST for windgust in km/hr)
2010,04,03,00,00,49.90
2010,04,03,00,01,33.80
2010,04,03,00,02,37.00
2010,04,03,00,03,43.50
2010,04,03,00,04,53.10
2010,04,03,00,05,62.70
2010,04,03,00,06,38.60
2010,04,03,00,07,49.90
2010,04,03,00,08,53.10
2010,04,03,00,09,38.60
2010,04,03,00,10,38.60
2010,04,03,00,11,37.00
2010,04,03,00,12,38.60
2010,04,03,00,13,53.10
2010,04,03,00,15,33.80
2010,04,03,00,16,37.00
2010,04,03,00,17,51.50
2010,04,03,00,18,51.50
2010,04,03,00,19,38.60
2010,04,03,00,20,40.20
2010,04,03,00,21,30.60
2010,04,03,00,22,33.80
2010,04,03,00,23,27.40
2010,04,03,00,24,27.40
2010,04,03,00,25,45.10
2010,04,03,00,26,40.20
2010,04,03,00,27,40.20
2010,04,03,00,28,27.40
2010,04,03,00,29,49.90
2010,04,03,00,30,46.70
2010,04,03,00,31,40.20
2010,04,03,00,32,32.20
2010,04,03,00,33,43.50
2010,04,03,00,34,37.00
2010,04,03,00,35,53.10
2010,04,03,00,36,43.50
2010,04,03,00,37,54.70
2010,04,03,00,38,46.70
2010,04,03,00,39,33.80
2010,04,03,00,40,29.00
2010,04,03,00,41,38.60
2010,04,03,00,42,25.70
2010,04,03,00,43,16.10
2010,04,03,00,44,27.40
2010,04,03,00,45,16.10
2010,04,03,00,46,24.20
2010,04,03,00,47,49.90
2010,04,03,00,48,30.60
2010,04,03,00,49,29.00
2010,04,03,00,50,30.60
2010,04,03,00,51,32.20
2010,04,03,00,52,29.00
2010,04,03,00,53,37.00
2010,04,03,00,54,33.80
2010,04,03,00,55,35.40
2010,04,03,00,56,40.20
2010,04,03,00,57,35.40
2010,04,03,00,58,32.20
2010,04,03,00,59,30.60
2010,04,03,01,00,30.60
2010,04,03,01,01,33.80
2010,04,03,01,02,37.00
2010,04,03,01,03,35.40
2010,04,03,01,04,27.40
2010,04,03,01,05,27.40
2010,04,03,01,06,27.40
2010,04,03,01,07,32.20
2010,04,03,01,08,29.00
2010,04,03,01,09,30.60
2010,04,03,01,10,32.20
2010,04,03,01,11,38.60
2010,04,03,01,12,32.20
2010,04,03,01,13,27.40
2010,04,03,01,14,29.00
2010,04,03,01,15,27.40
2010,04,03,01,16,29.00
2010,04,03,01,17,17.70
2010,04,03,01,18,22.50
2010,04,03,01,19,24.20
2010,04,03,01,20,25.70
2010,04,03,01,21,27.40
2010,04,03,01,22,20.90
2010,04,03,01,23,25.70
2010,04,03,01,24,27.40
2010,04,03,01,25,19.30
2010,04,03,01,26,29.00
2010,04,03,01,27,24.20
2010,04,03,01,28,27.40
2010,04,03,01,29,30.60
2010,04,03,01,30,29.00
2010,04,03,01,31,24.20
2010,04,03,01,32,37.00
2010,04,03,01,33,38.60
2010,04,03,01,34,35.40
2010,04,03,01,35,43.50
2010,04,03,01,36,45.10
2010,04,03,01,37,41.80
2010,04,03,01,38,33.80
2010,04,03,01,39,45.10
2010,04,03,01,40,43.50
2010,04,03,01,41,35.40
2010,04,03,01,42,29.00
2010,04,03,01,43,46.70
2010,04,03,01,44,51.50
2010,04,03,01,45,33.80
2010,04,03,01,46,46.70
2010,04,03,01,47,27.40
2010,04,03,01,48,30.60
2010,04,03,01,49,29.00
2010,04,03,01,50,27.40
2010,04,03,01,51,30.60
2010,04,03,01,52,43.50
2010,04,03,01,53,40.20
2010,04,03,01,54,49.90
2010,04,03,01,55,53.10
2010,04,03,01,56,38.60
2010,04,03,01,57,33.80
2010,04,03,01,58,48.30
2010,04,03,01,59,30.60
2010,04,03,02,00,41.80
2010,04,03,02,01,49.90
2010,04,03,02,02,35.40
2010,04,03,02,03,35.40
2010,04,03,02,04,37.00
2010,04,03,02,05,40.20
2010,04,03,02,06,30.60
2010,04,03,02,07,37.00
2010,04,03,02,08,40.20
2010,04,03,02,09,45.10
2010,04,03,02,10,38.60
2010,04,03,02,11,38.60
2010,04,03,02,12,43.50
2010,04,03,02,13,41.80
2010,04,03,02,14,45.10
2010,04,03,02,15,49.90
2010,04,03,02,16,43.50
2010,04,03,02,17,41.80
2010,04,03,02,18,37.00
2010,04,03,02,19,41.80
2010,04,03,02,20,40.20
2010,04,03,02,21,30.60
2010,04,03,02,22,43.50
2010,04,03,02,23,41.80
2010,04,03,02,24,43.50
2010,04,03,02,25,38.60
2010,04,03,02,26,38.60
2010,04,03,02,27,41.80
2010,04,03,02,28,40.20
2010,04,03,02,29,46.70
2010,04,03,02,30,46.70
2010,04,03,02,31,33.80
2010,04,03,02,32,48.30
2010,04,03,02,33,33.80
2010,04,03,02,34,29.00
2010,04,03,02,35,24.20
2010,04,03,02,36,29.00
2010,04,03,02,37,22.50
2010,04,03,02,38,37.00
2010,04,03,02,39,41.80
2010,04,03,02,40,30.60
2010,04,03,02,41,37.00
2010,04,03,02,42,33.80
2010,04,03,02,43,40.20
2010,04,03,02,44,48.30
2010,04,03,02,45,51.50
2010,04,03,02,46,43.50
2010,04,03,02,47,37.00
2010,04,03,02,48,40.20
2010,04,03,02,49,35.40
2010,04,03,02,50,43.50
2010,04,03,02,51,32.20
2010,04,03,02,52,27.40
2010,04,03,02,53,27.40
2010,04,03,02,54,32.20
2010,04,03,02,55,22.50
2010,04,03,02,56,22.50
2010,04,03,02,57,20.90
2010,04,03,02,58,27.40
2010,04,03,02,59,19.30
2010,04,03,03,00,25.70
2010,04,03,03,01,32.20
2010,04,03,03,02,20.90
2010,04,03,03,03,20.90
2010,04,03,03,04,25.70
2010,04,03,03,05,30.60
2010,04,03,03,06,38.60
2010,04,03,03,07,37.00
2010,04,03,03,08,41.80
2010,04,03,03,09,38.60
2010,04,03,03,10,32.20
2010,04,03,03,11,41.80
2010,04,03,03,12,41.80
2010,04,03,03,13,37.00
2010,04,03,03,14,40.20
2010,04,03,03,15,48.30
2010,04,03,03,16,37.00
2010,04,03,03,17,43.50
2010,04,03,03,18,33.80
2010,04,03,03,19,30.60
2010,04,03,03,20,35.40
2010,04,03,03,21,35.40
2010,04,03,03,22,25.70
2010,04,03,03,23,37.00
2010,04,03,03,24,33.80
2010,04,03,03,25,46.70
2010,04,03,03,26,46.70
2010,04,03,03,27,41.80
2010,04,03,03,28,45.10
2010,04,03,03,29,30.60
2010,04,03,03,30,41.80
2010,04,03,03,31,40.20
2010,04,03,03,32,33.80
2010,04,03,03,33,30.60
2010,04,03,03,34,27.40
2010,04,03,03,35,27.40
2010,04,03,03,36,30.60
2010,04,03,03,37,30.60
2010,04,03,03,38,25.70
2010,04,03,03,39,35.40
2010,04,03,03,40,27.40
2010,04,03,03,41,19.30
2010,04,03,03,42,27.40
2010,04,03,03,43,20.90
2010,04,03,03,44,16.10
2010,04,03,03,45,16.10
2010,04,03,03,46,20.90
2010,04,03,03,47,20.90
2010,04,03,03,48,24.20
2010,04,03,03,49,19.30
2010,04,03,03,50,19.30
2010,04,03,03,51,19.30
2010,04,03,03,52,20.90
2010,04,03,03,53,19.30
2010,04,03,03,54,29.00
2010,04,03,03,55,25.70
2010,04,03,03,56,27.40
2010,04,03,03,57,24.20
2010,04,03,03,58,25.70
2010,04,03,03,59,41.80
2010,04,03,04,00,49.90
2010,04,03,04,01,35.40
2010,04,03,04,02,40.20
2010,04,03,04,03,38.60
2010,04,03,04,04,20.90
2010,04,03,04,05,25.70
2010,04,03,04,06,25.70
2010,04,03,04,07,25.70
2010,04,03,04,08,20.90
2010,04,03,04,09,20.90
2010,04,03,04,10,22.50
2010,04,03,04,11,24.20
2010,04,03,04,12,25.70
2010,04,03,04,13,29.00
2010,04,03,04,14,24.20
2010,04,03,04,15,22.50
2010,04,03,04,16,22.50
2010,04,03,04,17,27.40
2010,04,03,04,18,25.70
2010,04,03,04,19,17.70
2010,04,03,04,20,19.30
2010,04,03,04,21,27.40
2010,04,03,04,22,17.70
2010,04,03,04,23,24.20
2010,04,03,04,24,24.20
2010,04,03,04,25,27.40
2010,04,03,04,26,33.80
2010,04,03,04,27,32.20
2010,04,03,04,28,25.70
2010,04,03,04,29,24.20
2010,04,03,04,30,24.20
2010,04,03,04,31,25.70
2010,04,03,04,32,25.70
2010,04,03,04,33,22.50
2010,04,03,04,34,25.70
2010,04,03,04,35,20.90
2010,04,03,04,36,19.30
2010,04,03,04,37,17.70
2010,04,03,04,38,9.60
2010,04,03,04,39,19.30
2010,04,03,04,40,20.90
2010,04,03,04,41,22.50
2010,04,03,04,42,30.60
2010,04,03,04,43,30.60
2010,04,03,04,44,20.90
2010,04,03,04,45,30.60
2010,04,03,04,46,32.20
2010,04,03,04,47,29.00
2010,04,03,04,48,27.40
2010,04,03,04,49,29.00
2010,04,03,04,50,30.60
2010,04,03,04,51,35.40
2010,04,03,04,52,35.40
2010,04,03,04,53,29.00
2010,04,03,04,54,24.20
2010,04,03,04,55,33.80
2010,04,03,04,56,25.70
2010,04,03,04,57,29.00
2010,04,03,04,58,30.60
2010,04,03,04,59,33.80
2010,04,03,05,00,38.60
2010,04,03,05,01,37.00
2010,04,03,05,02,43.50
2010,04,03,05,03,30.60
2010,04,03,05,04,33.80
2010,04,03,05,05,40.20
2010,04,03,05,06,27.40
2010,04,03,05,07,30.60
2010,04,03,05,08,24.20
2010,04,03,05,09,27.40
2010,04,03,05,10,19.30
2010,04,03,05,11,22.50
2010,04,03,05,12,22.50
2010,04,03,05,13,19.30
2010,04,03,05,14,24.20
2010,04,03,05,15,29.00
2010,04,03,05,16,17.70
2010,04,03,05,17,27.40
2010,04,03,05,18,22.50
2010,04,03,05,19,22.50
2010,04,03,05,20,22.50
2010,04,03,05,21,24.20
2010,04,03,05,22,17.70
2010,04,03,05,23,22.50
2010,04,03,05,24,27.40
2010,04,03,05,25,30.60
2010,04,03,05,26,22.50
2010,04,03,05,27,22.50
2010,04,03,05,28,32.20
2010,04,03,05,29,24.20
2010,04,03,05,30,30.60
2010,04,03,05,31,29.00
2010,04,03,05,32,24.20
2010,04,03,05,33,20.90
2010,04,03,05,34,16.10
2010,04,03,05,35,24.20
2010,04,03,05,36,25.70
2010,04,03,05,37,32.20
2010,04,03,05,38,22.50
2010,04,03,05,39,30.60
2010,04,03,05,40,22.50
2010,04,03,05,41,32.20
2010,04,03,05,42,29.00
2010,04,03,05,43,29.00
2010,04,03,05,44,25.70
2010,04,03,05,45,24.20
2010,04,03,05,46,27.40
2010,04,03,05,47,38.60
2010,04,03,05,48,32.20
2010,04,03,05,49,37.00
2010,04,03,05,50,38.60
2010,04,03,05,51,33.80
2010,04,03,05,52,32.20
2010,04,03,05,53,25.70
2010,04,03,05,54,30.60
2010,04,03,05,55,24.20
2010,04,03,05,56,29.00
2010,04,03,05,57,33.80
2010,04,03,05,58,30.60
2010,04,03,05,59,35.40
2010,04,03,06,00,32.20
2010,04,03,06,01,25.70
2010,04,03,06,02,22.50
2010,04,03,06,03,16.10
2010,04,03,06,04,40.20
2010,04,03,06,05,32.20
2010,04,03,06,06,29.00
2010,04,03,06,07,27.40
2010,04,03,06,08,30.60
2010,04,03,06,09,29.00
2010,04,03,06,10,22.50
2010,04,03,06,11,24.20
2010,04,03,06,12,19.30
2010,04,03,06,13,22.50
2010,04,03,06,14,22.50
2010,04,03,06,15,17.70
2010,04,03,06,16,16.10
2010,04,03,06,17,20.90
2010,04,03,06,18,25.70
2010,04,03,06,19,22.50
2010,04,03,06,20,29.00
2010,04,03,06,21,20.90
2010,04,03,06,22,16.10
2010,04,03,06,23,11.30
2010,04,03,06,24,17.70
2010,04,03,06,25,17.70
2010,04,03,06,26,14.50
2010,04,03,06,27,11.30
2010,04,03,06,28,11.30
2010,04,03,06,29,16.10
2010,04,03,06,30,14.50
2010,04,03,06,31,17.70
2010,04,03,06,32,11.30
2010,04,03,06,33,16.10
2010,04,03,06,34,14.50
2010,04,03,06,35,17.70
2010,04,03,06,36,16.10
2010,04,03,06,37,17.70
2010,04,03,06,38,14.50
2010,04,03,06,39,17.70
2010,04,03,06,40,11.30
2010,04,03,06,41,16.10
2010,04,03,06,42,24.20
2010,04,03,06,43,16.10
2010,04,03,06,44,20.90
2010,04,03,06,45,17.70
2010,04,03,06,46,24.20
2010,04,03,06,47,20.90
2010,04,03,06,48,17.70
2010,04,03,06,49,16.10
2010,04,03,06,50,17.70
2010,04,03,06,51,16.10
2010,04,03,06,52,9.60
2010,04,03,06,53,11.30
2010,04,03,06,54,12.90
2010,04,03,06,55,11.30
2010,04,03,06,56,11.30
2010,04,03,06,57,14.50
2010,04,03,06,58,9.60
2010,04,03,06,59,20.90
2010,04,03,07,00,11.30
2010,04,03,07,01,22.50
2010,04,03,07,02,20.90
2010,04,03,07,03,22.50
2010,04,03,07,04,19.30
2010,04,03,07,05,27.40
2010,04,03,07,06,25.70
2010,04,03,07,07,20.90
2010,04,03,07,08,20.90
2010,04,03,07,09,17.70
2010,04,03,07,10,22.50
2010,04,03,07,11,20.90
2010,04,03,07,12,30.60
2010,04,03,07,13,32.20
2010,04,03,07,14,24.20
2010,04,03,07,15,24.20
2010,04,03,07,16,25.70
2010,04,03,07,17,30.60
2010,04,03,07,18,27.40
2010,04,03,07,19,24.20
2010,04,03,07,20,25.70
2010,04,03,07,21,24.20
2010,04,03,07,22,17.70
2010,04,03,07,23,29.00
2010,04,03,07,24,29.00
2010,04,03,07,25,35.40
2010,04,03,07,26,30.60
2010,04,03,07,27,32.20
2010,04,03,07,28,29.00
2010,04,03,07,29,27.40
2010,04,03,07,30,29.00
2010,04,03,07,31,25.70
2010,04,03,07,32,35.40
2010,04,03,07,33,19.30
2010,04,03,07,34,41.80
2010,04,03,07,35,27.40
2010,04,03,07,36,40.20
2010,04,03,07,37,53.10
2010,04,03,07,38,53.10
2010,04,03,07,39,56.30
2010,04,03,07,40,30.60
2010,04,03,07,41,48.30
2010,04,03,07,42,41.80
2010,04,03,07,43,38.60
2010,04,03,07,44,35.40
2010,04,03,07,45,29.00
2010,04,03,07,46,43.50
2010,04,03,07,47,35.40
2010,04,03,07,48,40.20
2010,04,03,07,49,33.80
2010,04,03,07,50,33.80
2010,04,03,07,51,27.40
2010,04,03,07,52,22.50
2010,04,03,07,53,16.10
2010,04,03,07,54,20.90
2010,04,03,07,55,22.50
2010,04,03,07,56,20.90
2010,04,03,07,57,20.90
2010,04,03,07,58,9.60
2010,04,03,07,59,17.70
2010,04,03,08,00,14.50
2010,04,03,08,01,14.50
2010,04,03,08,02,17.70
2010,04,03,08,03,19.30
2010,04,03,08,04,16.10
2010,04,03,08,05,17.70
2010,04,03,08,06,14.50
2010,04,03,08,07,17.70
2010,04,03,08,08,16.10
2010,04,03,08,09,14.50
2010,04,03,08,10,16.10
2010,04,03,08,11,11.30
2010,04,03,08,12,19.30
2010,04,03,08,13,12.90
2010,04,03,08,14,20.90
2010,04,03,08,15,17.70
2010,04,03,08,16,14.50
2010,04,03,08,17,9.60
2010,04,03,08,18,9.60
2010,04,03,08,19,9.60
2010,04,03,08,20,12.90
2010,04,03,08,21,12.90
2010,04,03,08,22,8.10
2010,04,03,08,23,14.50
2010,04,03,08,24,8.10
2010,04,03,08,25,8.10
2010,04,03,08,26,16.10
2010,04,03,08,27,20.90
2010,04,03,08,28,17.70
2010,04,03,08,29,11.30
2010,04,03,08,30,14.50
2010,04,03,08,31,6.40
2010,04,03,08,32,11.30
2010,04,03,08,33,17.70
2010,04,03,08,34,17.70
2010,04,03,08,35,22.50
2010,04,03,08,36,16.10
2010,04,03,08,37,11.30
2010,04,03,08,38,16.10
2010,04,03,08,39,22.50
2010,04,03,08,40,20.90
2010,04,03,08,41,25.70
2010,04,03,08,42,22.50
2010,04,03,08,43,30.60
2010,04,03,08,44,27.40
2010,04,03,08,45,20.90
2010,04,03,08,46,24.20
2010,04,03,08,47,22.50
2010,04,03,08,48,25.70
2010,04,03,08,49,25.70
2010,04,03,08,50,12.90
2010,04,03,08,51,20.90
2010,04,03,08,52,20.90
2010,04,03,08,53,11.30
2010,04,03,08,54,24.20
2010,04,03,08,55,24.20
2010,04,03,08,56,30.60
2010,04,03,08,57,29.00
2010,04,03,08,58,27.40
2010,04,03,08,59,27.40
2010,04,03,09,00,30.60
2010,04,03,09,01,22.50
2010,04,03,09,02,24.20
2010,04,03,09,03,27.40
2010,04,03,09,04,32.20
2010,04,03,09,05,27.40
2010,04,03,09,06,24.20
2010,04,03,09,07,24.20
2010,04,03,09,08,22.50
2010,04,03,09,09,29.00
2010,04,03,09,10,20.90
2010,04,03,09,11,25.70
2010,04,03,09,12,25.70
2010,04,03,09,13,24.20
2010,04,03,09,14,33.80
2010,04,03,09,15,20.90
2010,04,03,09,16,16.10
2010,04,03,09,17,16.10
2010,04,03,09,18,14.50
2010,04,03,09,19,16.10
2010,04,03,09,20,22.50
2010,04,03,09,21,16.10
2010,04,03,09,22,22.50
2010,04,03,09,23,22.50
2010,04,03,09,24,19.30
2010,04,03,09,25,9.60
2010,04,03,09,26,16.10
2010,04,03,09,27,16.10
2010,04,03,09,28,22.50
2010,04,03,09,29,11.30
2010,04,03,09,30,9.60
2010,04,03,09,31,17.70
2010,04,03,09,32,16.10
2010,04,03,09,33,14.50
2010,04,03,09,34,14.50
2010,04,03,09,35,14.50
2010,04,03,09,36,14.50
2010,04,03,09,37,9.60
2010,04,03,09,38,16.10
2010,04,03,09,39,22.50
2010,04,03,09,40,16.10
2010,04,03,09,41,20.90
2010,04,03,09,42,17.70
2010,04,03,09,43,19.30
2010,04,03,09,44,17.70
2010,04,03,09,45,17.70
2010,04,03,09,46,11.30
2010,04,03,09,47,14.50
2010,04,03,09,48,8.10
2010,04,03,09,49,9.60
2010,04,03,09,50,9.60
2010,04,03,09,51,12.90
2010,04,03,09,52,11.30
2010,04,03,09,53,19.30
2010,04,03,09,54,20.90
2010,04,03,09,55,17.70
2010,04,03,09,56,22.50
2010,04,03,09,57,19.30
2010,04,03,09,58,20.90
2010,04,03,09,59,16.10
2010,04,03,10,00,11.30
2010,04,03,10,01,22.50
2010,04,03,10,02,9.60
2010,04,03,10,03,11.30
2010,04,03,10,04,11.30
2010,04,03,10,05,19.30
2010,04,03,10,06,16.10
2010,04,03,10,07,16.10
2010,04,03,10,08,9.60
2010,04,03,10,09,4.80
2010,04,03,10,10,4.80
2010,04,03,10,11,9.60
2010,04,03,10,12,11.30
2010,04,03,10,13,12.90
2010,04,03,10,14,19.30
2010,04,03,10,15,14.50
2010,04,03,10,16,9.60
2010,04,03,10,17,9.60
2010,04,03,10,18,11.30
2010,04,03,10,19,8.10
2010,04,03,10,20,8.10
2010,04,03,10,21,6.40
2010,04,03,10,22,4.80
2010,04,03,10,23,6.40
2010,04,03,10,24,4.80
2010,04,03,10,25,4.80
2010,04,03,10,26,9.60
2010,04,03,10,27,8.10
2010,04,03,10,28,6.40
2010,04,03,10,29,8.10
2010,04,03,10,30,4.80
2010,04,03,10,31,4.80
2010,04,03,10,32,4.80
2010,04,03,10,33,3.20
2010,04,03,10,34,8.10
2010,04,03,10,35,8.10
2010,04,03,10,36,6.40
2010,04,03,10,37,4.80
2010,04,03,10,38,8.10
2010,04,03,10,39,16.10
2010,04,03,10,40,14.50
2010,04,03,10,41,9.60
2010,04,03,10,42,4.80
2010,04,03,10,43,4.80
2010,04,03,10,44,6.40
2010,04,03,10,45,9.60
2010,04,03,10,46,8.10
2010,04,03,10,47,4.80
2010,04,03,10,48,6.40
2010,04,03,10,49,6.40
2010,04,03,10,50,8.10
2010,04,03,10,51,6.40
2010,04,03,10,52,4.80
2010,04,03,10,53,4.80
2010,04,03,10,54,6.40
2010,04,03,10,55,6.40
2010,04,03,10,56,3.20
2010,04,03,10,57,6.40
2010,04,03,10,58,14.50
2010,04,03,10,59,9.60
2010,04,03,11,00,11.30
2010,04,03,11,01,6.40
2010,04,03,11,02,16.10
2010,04,03,11,03,11.30
2010,04,03,11,04,11.30
2010,04,03,11,05,11.30
2010,04,03,11,06,6.40
2010,04,03,11,07,9.60
2010,04,03,11,08,6.40
2010,04,03,11,09,8.10
2010,04,03,11,10,6.40
2010,04,03,11,11,4.80
2010,04,03,11,12,8.10
2010,04,03,11,13,4.80
2010,04,03,11,14,4.80
2010,04,03,11,15,4.80
2010,04,03,11,16,4.80
2010,04,03,11,17,1.60
2010,04,03,11,18,4.80
2010,04,03,11,19,4.80
2010,04,03,11,20,4.80
2010,04,03,11,21,3.20
2010,04,03,11,22,6.40
2010,04,03,11,23,3.20
2010,04,03,11,24,4.80
2010,04,03,11,25,6.40
2010,04,03,11,26,1.60
2010,04,03,11,27,1.60
2010,04,03,11,28,1.60
2010,04,03,11,29,0.00
2010,04,03,11,30,0.00
2010,04,03,11,31,0.00
2010,04,03,11,32,3.20
2010,04,03,11,33,9.60
2010,04,03,11,34,11.30
2010,04,03,11,35,6.40
2010,04,03,11,36,11.30
2010,04,03,11,37,16.10
2010,04,03,11,38,17.70
2010,04,03,11,39,12.90
2010,04,03,11,40,16.10
2010,04,03,11,41,17.70
2010,04,03,11,42,11.30
2010,04,03,11,43,19.30
2010,04,03,11,44,20.90
2010,04,03,11,45,16.10
2010,04,03,11,46,14.50
2010,04,03,11,47,14.50
2010,04,03,11,48,11.30
2010,04,03,11,49,8.10
2010,04,03,11,50,16.10
2010,04,03,11,51,16.10
2010,04,03,11,52,19.30
2010,04,03,11,53,16.10
2010,04,03,11,54,14.50
2010,04,03,11,55,11.30
2010,04,03,11,56,19.30
2010,04,03,11,57,20.90
2010,04,03,11,58,17.70
2010,04,03,11,59,9.60
2010,04,03,12,00,9.60
2010,04,03,12,01,8.10
2010,04,03,12,02,8.10
2010,04,03,12,03,11.30
2010,04,03,12,04,11.30
2010,04,03,12,05,9.60
2010,04,03,12,06,16.10
2010,04,03,12,07,20.90
2010,04,03,12,08,19.30
2010,04,03,12,09,22.50
2010,04,03,12,10,22.50
2010,04,03,12,11,16.10
2010,04,03,12,12,16.10
2010,04,03,12,13,16.10
2010,04,03,12,14,19.30
2010,04,03,12,15,19.30
2010,04,03,12,16,19.30
2010,04,03,12,17,16.10
2010,04,03,12,18,20.90
2010,04,03,12,19,24.20
2010,04,03,12,20,30.60
2010,04,03,12,21,25.70
2010,04,03,12,22,22.50
2010,04,03,12,23,30.60
2010,04,03,12,24,25.70
2010,04,03,12,25,27.40
2010,04,03,12,26,24.20
2010,04,03,12,27,22.50
2010,04,03,12,28,22.50
2010,04,03,12,29,24.20
2010,04,03,12,30,19.30
2010,04,03,12,31,17.70
2010,04,03,12,32,22.50
2010,04,03,12,33,17.70
2010,04,03,12,34,16.10
2010,04,03,12,35,24.20
2010,04,03,12,36,20.90
2010,04,03,12,37,14.50
2010,04,03,12,38,20.90
2010,04,03,12,39,22.50
2010,04,03,12,40,14.50
2010,04,03,12,41,19.30
2010,04,03,12,42,25.70
2010,04,03,12,43,19.30
2010,04,03,12,44,20.90
2010,04,03,12,45,27.40
2010,04,03,12,46,22.50
2010,04,03,12,47,25.70
2010,04,03,12,48,17.70
2010,04,03,12,49,22.50
2010,04,03,12,50,24.20
2010,04,03,12,51,24.20
2010,04,03,12,52,25.70
2010,04,03,12,53,24.20
2010,04,03,12,54,29.00
2010,04,03,12,55,20.90
2010,04,03,12,56,30.60
2010,04,03,12,57,30.60
2010,04,03,12,58,24.20
2010,04,03,12,59,27.40
2010,04,03,13,00,25.70
2010,04,03,13,01,27.40
2010,04,03,13,02,22.50
2010,04,03,13,03,24.20
2010,04,03,13,04,20.90
2010,04,03,13,05,22.50
2010,04,03,13,06,22.50
2010,04,03,13,07,22.50
2010,04,03,13,08,20.90
2010,04,03,13,09,24.20
2010,04,03,13,10,24.20
2010,04,03,13,11,24.20
2010,04,03,13,12,22.50
2010,04,03,13,13,29.00
2010,04,03,13,14,19.30
2010,04,03,13,15,24.20
2010,04,03,13,16,30.60
2010,04,03,13,17,27.40
2010,04,03,13,18,22.50
2010,04,03,13,19,25.70
2010,04,03,13,20,27.40
2010,04,03,13,21,27.40
2010,04,03,13,22,35.40
2010,04,03,13,23,24.20
2010,04,03,13,24,32.20
2010,04,03,13,25,27.40
2010,04,03,13,26,24.20
2010,04,03,13,27,27.40
2010,04,03,13,28,29.00
2010,04,03,13,29,17.70
2010,04,03,13,30,29.00
2010,04,03,13,31,27.40
2010,04,03,13,32,25.70
2010,04,03,13,33,16.10
2010,04,03,13,34,20.90
2010,04,03,13,35,19.30
2010,04,03,13,36,19.30
2010,04,03,13,37,27.40
2010,04,03,13,38,27.40
2010,04,03,13,39,29.00
2010,04,03,13,40,24.20
2010,04,03,13,41,27.40
2010,04,03,13,42,32.20
2010,04,03,13,43,35.40
2010,04,03,13,44,22.50
2010,04,03,13,45,19.30
2010,04,03,13,46,24.20
2010,04,03,13,47,27.40
2010,04,03,13,48,35.40
2010,04,03,13,49,25.70
2010,04,03,13,50,32.20
2010,04,03,13,51,32.20
2010,04,03,13,52,24.20
2010,04,03,13,53,27.40
2010,04,03,13,54,20.90
2010,04,03,13,55,24.20
2010,04,03,13,56,19.30
2010,04,03,13,57,11.30
2010,04,03,13,58,20.90
2010,04,03,13,59,20.90
2010,04,03,14,00,17.70
2010,04,03,14,01,17.70
2010,04,03,14,02,17.70
2010,04,03,14,03,19.30
2010,04,03,14,04,16.10
2010,04,03,14,05,11.30
2010,04,03,14,06,16.10
2010,04,03,14,07,16.10
2010,04,03,14,08,11.30
2010,04,03,14,09,9.60
2010,04,03,14,10,14.50
2010,04,03,14,11,11.30
2010,04,03,14,12,14.50
2010,04,03,14,13,14.50
2010,04,03,14,14,8.10
2010,04,03,14,15,6.40
2010,04,03,14,16,11.30
2010,04,03,14,17,9.60
2010,04,03,14,18,16.10
2010,04,03,14,19,9.60
2010,04,03,14,20,9.60
2010,04,03,14,21,11.30
2010,04,03,14,22,14.50
2010,04,03,14,23,14.50
2010,04,03,14,24,16.10
2010,04,03,14,25,8.10
2010,04,03,14,26,6.40
2010,04,03,14,27,9.60
2010,04,03,14,28,9.60
2010,04,03,14,29,16.10
2010,04,03,14,30,8.10
2010,04,03,14,31,4.80
2010,04,03,14,32,9.60
2010,04,03,14,33,8.10
2010,04,03,14,34,9.60
2010,04,03,14,35,8.10
2010,04,03,14,36,9.60
2010,04,03,14,37,4.80
2010,04,03,14,38,9.60
2010,04,03,14,39,11.30
2010,04,03,14,40,8.10
2010,04,03,14,41,9.60
2010,04,03,14,42,8.10
2010,04,03,14,43,8.10
2010,04,03,14,44,16.10
2010,04,03,14,45,11.30
2010,04,03,14,46,9.60
2010,04,03,14,47,6.40
2010,04,03,14,48,8.10
2010,04,03,14,49,4.80
2010,04,03,14,50,19.30
2010,04,03,14,51,8.10
2010,04,03,14,52,17.70
2010,04,03,14,53,14.50
2010,04,03,14,54,14.50
2010,04,03,14,55,9.60
2010,04,03,14,56,6.40
2010,04,03,14,57,14.50
2010,04,03,14,58,17.70
2010,04,03,14,59,19.30
2010,04,03,15,00,22.50
2010,04,03,15,01,25.70
2010,04,03,15,02,16.10
2010,04,03,15,03,14.50
2010,04,03,15,04,19.30
2010,04,03,15,05,19.30
2010,04,03,15,06,19.30
2010,04,03,15,07,12.90
2010,04,03,15,08,29.00
2010,04,03,15,09,17.70
2010,04,03,15,10,17.70
2010,04,03,15,11,14.50
2010,04,03,15,12,19.30
2010,04,03,15,13,14.50
2010,04,03,15,14,11.30
2010,04,03,15,15,11.30
2010,04,03,15,16,14.50
2010,04,03,15,17,22.50
2010,04,03,15,18,22.50
2010,04,03,15,19,19.30
2010,04,03,15,20,22.50
2010,04,03,15,21,19.30
2010,04,03,15,22,19.30
2010,04,03,15,23,19.30
2010,04,03,15,24,19.30
2010,04,03,15,25,17.70
2010,04,03,15,26,14.50
2010,04,03,15,27,9.60
2010,04,03,15,28,4.80
2010,04,03,15,29,19.30
2010,04,03,15,30,17.70
2010,04,03,15,31,11.30
2010,04,03,15,32,17.70
2010,04,03,15,33,12.90
2010,04,03,15,34,8.10
2010,04,03,15,35,6.40
2010,04,03,15,36,16.10
2010,04,03,15,37,19.30
2010,04,03,15,38,16.10
2010,04,03,15,39,8.10
2010,04,03,15,40,11.30
2010,04,03,15,41,11.30
2010,04,03,15,42,20.90
2010,04,03,15,43,20.90
2010,04,03,15,44,11.30
2010,04,03,15,45,11.30
2010,04,03,15,46,14.50
2010,04,03,15,47,16.10
2010,04,03,15,48,14.50
2010,04,03,15,49,11.30
2010,04,03,15,50,9.60
2010,04,03,15,51,6.40
2010,04,03,15,52,8.10
2010,04,03,15,53,6.40
2010,04,03,15,54,8.10
2010,04,03,15,55,6.40
2010,04,03,15,56,1.60
2010,04,03,15,57,4.80
2010,04,03,15,58,9.60
2010,04,03,15,59,17.70
2010,04,03,16,00,22.50
2010,04,03,16,01,17.70
2010,04,03,16,02,16.10
2010,04,03,16,03,11.30
2010,04,03,16,04,11.30
2010,04,03,16,05,14.50
2010,04,03,16,06,14.50
2010,04,03,16,07,9.60
2010,04,03,16,08,17.70
2010,04,03,16,09,17.70
2010,04,03,16,10,16.10
2010,04,03,16,11,16.10
2010,04,03,16,12,9.60
2010,04,03,16,13,9.60
2010,04,03,16,14,9.60
2010,04,03,16,15,14.50
2010,04,03,16,16,12.90
2010,04,03,16,17,14.50
2010,04,03,16,18,12.90
2010,04,03,16,19,14.50
2010,04,03,16,20,17.70
2010,04,03,16,21,11.30
2010,04,03,16,22,16.10
2010,04,03,16,23,16.10
2010,04,03,16,24,9.60
2010,04,03,16,25,4.80
2010,04,03,16,26,6.40
2010,04,03,16,27,9.60
2010,04,03,16,28,6.40
2010,04,03,16,29,8.10
2010,04,03,16,30,6.40
2010,04,03,16,31,8.10
2010,04,03,16,32,11.30
2010,04,03,16,33,9.60
2010,04,03,16,34,14.50
2010,04,03,16,35,16.10
2010,04,03,16,36,17.70
2010,04,03,16,37,14.50
2010,04,03,16,38,9.60
2010,04,03,16,39,17.70
2010,04,03,16,40,17.70
2010,04,03,16,41,8.10
2010,04,03,16,42,11.30
2010,04,03,16,43,11.30
2010,04,03,16,44,12.90
2010,04,03,16,45,14.50
2010,04,03,16,46,16.10
2010,04,03,16,47,14.50
2010,04,03,16,48,17.70
2010,04,03,16,49,12.90
2010,04,03,16,50,12.90
2010,04,03,16,51,8.10
2010,04,03,16,52,14.50
2010,04,03,16,53,8.10
2010,04,03,16,54,14.50
2010,04,03,16,55,14.50
2010,04,03,16,56,17.70
2010,04,03,16,57,14.50
2010,04,03,16,58,16.10
2010,04,03,16,59,9.60
2010,04,03,17,00,17.70
2010,04,03,17,01,11.30
2010,04,03,17,02,14.50
2010,04,03,17,03,14.50
2010,04,03,17,04,11.30
2010,04,03,17,05,9.60
2010,04,03,17,06,9.60
2010,04,03,17,07,9.60
2010,04,03,17,08,6.40
2010,04,03,17,09,8.10
2010,04,03,17,10,9.60
2010,04,03,17,11,8.10
2010,04,03,17,12,8.10
2010,04,03,17,13,9.60
2010,04,03,17,14,9.60
2010,04,03,17,15,11.30
2010,04,03,17,16,16.10
2010,04,03,17,17,9.60
2010,04,03,17,18,11.30
2010,04,03,17,19,14.50
2010,04,03,17,20,12.90
2010,04,03,17,21,9.60
2010,04,03,17,22,11.30
2010,04,03,17,23,9.60
2010,04,03,17,24,8.10
2010,04,03,17,25,9.60
2010,04,03,17,26,8.10
2010,04,03,17,27,8.10
2010,04,03,17,28,11.30